User: anonymous   Login
Location: *
(37.5724°S, 58.0067°E)
Time: 10:26:44
(UTC+00:00)
Language:

Cosmos 1980 - Orbit

View from above orbital plane
View from above orbital plane
View from above satellite
View from above satellite

Ground track
Ground track

The orbit data is extracted from the following two-line orbital elements,

1 19649U 88102A   20337.59304873 -.00000301  00000-0 -13137-3 0  9996
2 19649  71.0004 291.8952 0006509 215.5908 144.4781 14.14721296653122
Epoch (UTC): 02 December 2020 14:13:59
Eccentricity: 0.0006509
inclination: 71.0004°
perigee height: 838 km
apogee height: 848 km
right ascension of ascending node: 291.8952°
argument of perigee: 215.5908°
revolutions per day: 14.14721296
mean anomaly at epoch: 144.4781°
orbit number at epoch: 65312

The dashed part of the orbit path shows where the satellite is in the earth's shadow,  

DLR